| time (UTC) | temp C | wind direction | speed KPH | gust KPH | rain 1hr cm | rain 24hr cm | rain mn cm | humidity % | barometer mb |
| 20260506124543 | 15 | 32 | 3.2 | 16.1 | 0.00 | 0.00 | 0.00 | 93 | 1010.1 |
| 20260506123039 | 16 | 277 | 0.0 | 12.9 | 0.00 | 0.00 | 0.00 | 93 | 1009.9 |
| 20260506121534 | 16 | 255 | 0.0 | 6.4 | 0.00 | 0.00 | 0.00 | 93 | 1009.5 |
| 20260506120033 | 16 | 254 | 0.0 | 8.0 | 0.00 | 0.00 | 0.00 | 92 | 1009.2 |
| 20260506114533 | 17 | 231 | 1.6 | 12.9 | 0.00 | 0.00 | 0.00 | 92 | 1009.2 |
| 20260506113022 | 18 | 227 | 0.0 | 8.0 | 0.00 | 0.00 | 0.00 | 90 | 1008.8 |
| 20260506111521 | 20 | 224 | 0.0 | 6.4 | 0.00 | 0.00 | 0.00 | 88 | 1008.4 |
| 20260506110017 | 23 | 217 | 0.0 | 0.0 | 0.00 | 0.00 | 0.00 | 92 | 1007.8 |
| 20260506104512 | 23 | 217 | 0.0 | 0.0 | 0.00 | 0.00 | 0.00 | 92 | 1007.7 |
| 20260506103011 | 23 | 217 | 0.0 | 1.6 | 0.00 | 0.00 | 0.00 | 92 | 1007.5 |
| 20260506101521 | 23 | 217 | 0.0 | 0.0 | 0.00 | 0.00 | 0.00 | 92 | 1007.3 |
| 20260506100009 | 23 | 217 | 0.0 | 1.6 | 0.00 | 0.00 | 0.00 | 92 | 1007.3 |
| 20260506094519 | 23 | 217 | 0.0 | 1.6 | 0.00 | 0.00 | 0.00 | 92 | 1007.1 |
| 20260506093013 | 23 | 217 | 0.0 | 1.6 | 0.00 | 0.00 | 0.00 | 92 | 1007.1 |
| 20260506091507 | 23 | 217 | 0.0 | 0.0 | 0.00 | 0.00 | 0.00 | 91 | 1007.1 |
| 20260506090006 | 23 | 217 | 0.0 | 1.6 | 0.00 | 0.00 | 0.00 | 91 | 1007.1 |
| 20260506084506 | 23 | 217 | 0.0 | 3.2 | 0.00 | 0.00 | 0.00 | 91 | 1007.1 |
| 20260506083005 | 23 | 217 | 0.0 | 1.6 | 0.00 | 0.00 | 0.00 | 91 | 1007.2 |
| 20260506081505 | 23 | 217 | 0.0 | 4.8 | 0.00 | 0.00 | 0.00 | 91 | 1007.1 |
| 20260506073006 | 23 | 214 | 0.0 | 6.4 | 0.00 | 0.00 | 0.00 | 91 | 1007.3 |
| 20260506071503 | 23 | 216 | 0.0 | 9.7 | 0.00 | 0.00 | 0.00 | 91 | 1007.2 |
| 20260506061557 | 23 | 215 | 0.0 | 1.6 | 0.00 | 0.00 | 0.00 | 90 | 1007.2 |
| 20260506044637 | 24 | 217 | 0.0 | 1.6 | 0.00 | 0.00 | 0.00 | 88 | 1006.6 |
| 20260506043043 | 24 | 217 | 0.0 | 1.6 | 0.00 | 0.00 | 0.00 | 88 | 1006.5 |
| 20260506041556 | 24 | 220 | 0.0 | 3.2 | 0.00 | 0.00 | 0.00 | 88 | 1006.3 |
| 20260506040042 | 24 | 220 | 0.0 | 8.0 | 0.00 | 0.00 | 0.00 | 87 | 1006.4 |
| 20260506034616 | 24 | 220 | 0.0 | 8.0 | 0.00 | 0.00 | 0.00 | 87 | 1006.1 |
| 20260506033041 | 24 | 221 | 0.0 | 4.8 | 0.00 | 0.00 | 0.00 | 86 | 1006.0 |
| 20260506031542 | 25 | 221 | 0.0 | 1.6 | 0.00 | 0.00 | 0.00 | 86 | 1005.7 |
| 20260506030039 | 24 | 221 | 0.0 | 3.2 | 0.00 | 0.00 | 0.00 | 86 | 1005.5 |
| 20260506024539 | 24 | 221 | 0.0 | 1.6 | 0.00 | 0.00 | 0.00 | 85 | 1005.0 |
| 20260506023100 | 25 | 221 | 0.0 | 0.0 | 0.00 | 0.00 | 0.00 | 84 | 1004.9 |
| 20260506021538 | 25 | 221 | 0.0 | 0.0 | 0.00 | 0.00 | 0.00 | 83 | 1004.7 |
| 20260506020039 | 25 | 221 | 0.0 | 1.6 | 0.00 | 0.00 | 0.00 | 83 | 1004.5 |
| 20260506014537 | 25 | 221 | 0.0 | 1.6 | 0.00 | 0.00 | 0.00 | 81 | 1004.5 |
| 20260506013040 | 25 | 221 | 0.0 | 0.0 | 0.00 | 0.00 | 0.00 | 79 | 1004.5 |
| 20260506011535 | 26 | 221 | 0.0 | 1.6 | 0.00 | 0.00 | 0.00 | 78 | 1004.3 |
| 20260506010041 | 26 | 221 | 0.0 | 1.6 | 0.00 | 0.00 | 0.00 | 77 | 1004.2 |
| 20260506004557 | 26 | 221 | 0.0 | 3.2 | 0.00 | 0.00 | 0.00 | 76 | 1004.1 |
| 20260506003044 | 27 | 221 | 0.0 | 8.0 | 0.00 | 0.00 | 0.00 | 75 | 1004.1 |
| 20260506001537 | 27 | 220 | 0.0 | 9.7 | 0.00 | 0.00 | 0.00 | 74 | 1004.2 |
| 20260506000032 | 27 | 222 | 0.0 | 6.4 | 0.00 | 0.00 | 0.00 | 74 | 1004.1 |
| 20260505234553 | 27 | 220 | 0.0 | 4.8 | 0.00 | 0.00 | 0.00 | 75 | 1004.0 |
| 20260505233036 | 27 | 211 | 1.6 | 12.9 | 0.00 | 0.00 | 0.00 | 73 | 1003.8 |
| 20260505231533 | 27 | 208 | 0.0 | 12.9 | 0.00 | 0.00 | 0.00 | 73 | 1003.8 |
| 20260505230038 | 28 | 196 | 1.6 | 12.9 | 0.00 | 0.00 | 0.00 | 72 | 1003.7 |
| 20260505224528 | 28 | 215 | 1.6 | 9.7 | 0.00 | 0.00 | 0.00 | 72 | 1003.7 |
| 20260505223030 | 28 | 208 | 1.6 | 17.7 | 0.00 | 0.00 | 0.00 | 72 | 1003.8 |
| 20260505221525 | 27 | 216 | 1.6 | 11.3 | 0.00 | 0.00 | 0.00 | 72 | 1003.8 |
| 20260505220033 | 28 | 212 | 1.6 | 14.5 | 0.00 | 0.00 | 0.00 | 70 | 1004.0 |
| 20260505214523 | 27 | 208 | 4.8 | 16.1 | 0.00 | 0.00 | 0.00 | 72 | 1004.1 |
| 20260505213021 | 27 | 221 | 3.2 | 14.5 | 0.00 | 0.00 | 0.00 | 72 | 1004.2 |
| 20260505211518 | 27 | 212 | 3.2 | 22.5 | 0.00 | 0.00 | 0.00 | 72 | 1004.4 |
| 20260505210015 | 27 | 220 | 1.6 | 16.1 | 0.00 | 0.00 | 0.00 | 72 | 1004.7 |
| 20260505204514 | 27 | 209 | 1.6 | 19.3 | 0.00 | 0.00 | 0.00 | 73 | 1004.8 |
| 20260505203013 | 27 | 229 | 0.0 | 16.1 | 0.00 | 0.00 | 0.00 | 74 | 1004.7 |
| 20260505201512 | 27 | 214 | 3.2 | 17.7 | 0.00 | 0.00 | 0.00 | 74 | 1004.7 |
| 20260505200008 | 27 | 214 | 4.8 | 19.3 | 0.00 | 0.00 | 0.00 | 75 | 1004.8 |
| 20260505194520 | 26 | 219 | 3.2 | 14.5 | 0.00 | 0.00 | 0.00 | 75 | 1005.1 |
| 20260505193019 | 27 | 204 | 3.2 | 25.7 | 0.00 | 0.00 | 0.00 | 74 | 1005.4 |
| 20260505191505 | 26 | 219 | 3.2 | 14.5 | 0.00 | 0.00 | 0.00 | 75 | 1005.4 |
| 20260505190003 | 26 | 219 | 3.2 | 24.1 | 0.00 | 0.00 | 0.00 | 77 | 1005.3 |
| 20260505184606 | 26 | 219 | 6.4 | 27.4 | 0.00 | 0.00 | 0.00 | 77 | 1005.5 |
| 20260505183057 | 25 | 214 | 1.6 | 25.7 | 0.00 | 0.00 | 0.00 | 79 | 1005.8 |
| 20260505181553 | 25 | 226 | 3.2 | 22.5 | 0.00 | 0.00 | 0.00 | 82 | 1005.9 |
| 20260505180058 | 25 | 213 | 4.8 | 20.9 | 0.00 | 0.00 | 0.00 | 82 | 1006.2 |
| 20260505174608 | 25 | 216 | 1.6 | 14.5 | 0.00 | 0.00 | 0.00 | 82 | 1006.3 |
| 20260505173049 | 24 | 211 | 1.6 | 12.9 | 0.00 | 0.00 | 0.00 | 84 | 1006.3 |
| 20260505171547 | 24 | 226 | 1.6 | 14.5 | 0.00 | 0.00 | 0.00 | 84 | 1006.5 |
| 20260505170110 | 23 | 220 | 0.0 | 11.3 | 0.00 | 0.00 | 0.00 | 86 | 1006.4 |
| 20260505164543 | 23 | 224 | 1.6 | 22.5 | 0.00 | 0.00 | 0.00 | 86 | 1006.6 |
| 20260505163044 | 23 | 245 | 3.2 | 16.1 | 0.00 | 0.00 | 0.00 | 87 | 1006.6 |
| 20260505161536 | 23 | 232 | 0.0 | 16.1 | 0.00 | 0.00 | 0.00 | 88 | 1006.6 |
| 20260505153031 | 22 | 254 | 0.0 | 20.9 | 0.00 | 0.00 | 0.00 | 88 | 1006.6 |
| 20260505151526 | 22 | 221 | 1.6 | 12.9 | 0.00 | 0.00 | 0.00 | 88 | 1006.5 |